Weather in Mamonovshchina

Russia / Novgorod Oblast     57°20′57″N   32°33′49″E
temp.,
°C
wind,
m/s
gust,
m/s
humid.,
%
clouds,
%
prec.,
mm/h
press.,
hPa
HPBL,
m
28 september, tue
tue2800:00+7nne279157 0.0 1029276
03:00+5ne25976 0.0 1030116
06:00+6ene279597 0.0 1030272
09:00+7ene378948 0.0 1031409
12:00+9e3572100 0.0 1032777
15:00+9e3469100 0.1 1032918
18:00+7ese247352 0.0 103480
21:00+5ese11815 0.0 103510
29 september, wed
wed2900:00+3ese11865 0.0 103611
03:00+3se11925 0.0 103713
06:00+2se11936 0.0 103711
09:00+5se127881 0.0 1037139
12:00+10se125647 0.0 1037701
15:00+12se124780 0.0 10351016
18:00+8ese116672 0.0 103510
21:00+5se127558 0.0 103612
30 september, thu
thu3000:00+4sse228165 0.0 103616
03:00+3sse228451 0.0 103615
06:00+3sse228635 0.0 103616
09:00+6sse237210 0.0 1036153
12:00+11sse23545 0.0 1035682
15:00+13s34495 0.0 1034971
18:00+9sse22705 0.0 103323
21:00+6s248141 0.0 103475
1 october, fri
fri100:00+5s268750 0.0 1034114
03:00+4s269219 0.0 1034118
06:00+3s379412 0.0 1034144
09:00+6s387868 0.0 1033252
12:00+11ssw46545 0.0 1033712
15:00+13ssw35495 0.0 10321008
18:00+9s24705 0.0 103168
21:00+6s288276 0.0 1032144
2 october, sat
sat200:00+5s398734 0.0 1032173
03:00+4s38915 0.0 1031166
06:00+4s39920 0.0 1031197
09:00+6s411770 0.0 1030298
12:00+12s48542 0.0 1029717
15:00+13s47490 0.0 10281060
18:00+10s4106517 0.0 1027513
21:00+8s4147688 0.0 1027496